This demonstration page uses our WeatherBlox Daily Observations layout. Learn more.

Hourly Observations for December 11, 2019

Temp ( °F °C ) Dew Point ( °F °C ) Humidity (%) Winds ( mph kmh ) Pressure ( in mb ) Visibility ( mi km ) Precip ( " mm )
12:54 am 00:54 Clear 25 -3.9 13 -10.6 60 60 SW 15 24 30.3 1026 10 16.09344 0 0
1:54 am 01:54 Clear 25 -3.9 14 -10 63 63 SW 14 22 30.27 1025 10 16.09344 0 0
2:54 am 02:54 Clear 27 -2.8 17 -8.3 66 66 WSW 14 22 30.27 1025 10 16.09344 0 0
3:54 am 03:54 Clear 28 -2.2 18 -7.8 66 66 WSW 15 24 30.27 1025 10 16.09344 0 0
4:54 am 04:54 Clear 27 -2.8 18 -7.8 69 69 SW 3 6 30.3 1026 10 16.09344 0 0
5:54 am 05:54 Clear 23 -5 17 -8.3 78 78 Calm 30.33 1027 10 16.09344 0 0
6:54 am 06:54 Clear 20 -6.7 15 -9.4 81 81 Calm 30.36 1028 10 16.09344 0 0
7:54 am 07:54 Sunny 22 -5.6 17 -8.3 82 82 N 12 19 30.39 1029 10 16.09344 0 0
8:54 am 08:54 Sunny 24 -4.4 18 -7.8 77 77 NNE 12 19 30.42 1030 10 16.09344 0 0
9:54 am 09:54 Sunny 25 -3.9 16 -8.9 69 69 NE 12 19 30.45 1031 10 16.09344 0 0
10:54 am 10:54 Sunny 27 -2.8 17 -8.3 66 66 NE 12 19 30.45 1031 10 16.09344 0 0
11:54 am 11:54 Sunny 30 -1.1 18 -7.8 61 61 ENE 9 15 30.42 1030 10 16.09344 0 0
12:54 pm 12:54 Sunny 33 0.6 19 -7.2 56 56 ESE 8 13 30.39 1029 10 16.09344 0 0
1:54 pm 13:54 Sunny 35 1.7 20 -6.7 54 54 ESE 12 19 30.36 1028 10 16.09344 0 0
2:54 pm 14:54 Sunny 35 1.7 21 -6.1 57 57 ESE 13 20 30.33 1027 10 16.09344 0 0
3:54 pm 15:54 Sunny 36 2.2 22 -5.6 57 57 ESE 13 20 30.3 1026 10 16.09344 0 0
4:54 pm 16:54 Sunny 33 0.6 22 -5.6 64 64 ESE 9 15 30.27 1025 10 16.09344 0 0
5:54 pm 17:54 Clear 32 0 22 -5.6 66 66 E 8 13 30.27 1025 10 16.09344 0 0
6:54 pm 18:54 Clear 31 -0.6 22 -5.6 69 69 ESE 7 11 30.24 1024 10 16.09344 0 0
7:54 pm 19:54 Clear 30 -1.1 22 -5.6 72 72 ESE 8 13 30.21 1023 10 16.09344 0 0
8:54 pm 20:54 Clear 32 0 22 -5.6 66 66 SE 8 13 30.15 1021 10 16.09344 0 0
9:54 pm 21:54 Clear 31 -0.6 21 -6.1 67 67 SSE 9 15 30.12 1020 10 16.09344 0 0
10:54 pm 22:54 Clear 27 -2.8 20 -6.7 75 75 S 9 15 30.09 1019 10 16.09344 0 0
11:54 pm 23:54 Clear 34 1.1 25 -3.9 70 70 S 9 15 30.06 1018 10 16.09344 0 0

Powered by AerisWeather